Time,TemperatureF,DewpointF,PressureIn,WindDirection,WindDirectionDegrees,WindSpeedMPH,WindSpeedGustMPH,Humidity,HourlyPrecipIn,Conditions,Clouds,dailyrainin,SoftwareType,DateUTC
2013-03-02 00:12:00,28.0,27.0,-100.00,SSW,207,4.0,6.0,96,0.00,,,0.02,,2013-03-02 05:12:00,
2013-03-02 00:22:00,28.0,27.0,-100.00,SSW,207,4.0,6.0,96,0.00,,,0.02,,2013-03-02 05:22:00,
2013-03-02 00:31:00,28.0,27.0,-100.00,SSW,207,4.0,6.0,96,0.00,,,0.02,,2013-03-02 05:31:00,
2013-03-02 00:41:00,28.0,27.0,-100.00,SSW,207,4.0,6.0,96,0.00,,,0.02,,2013-03-02 05:41:00,
2013-03-02 00:51:00,28.0,27.0,-100.00,SSW,207,4.0,6.0,96,0.00,,,0.02,,2013-03-02 05:51:00,
2013-03-02 01:21:00,28.0,27.0,-100.00,SSW,210,1.0,2.0,96,0.00,,,0.00,,2013-03-02 06:21:00,
2013-03-02 01:31:00,28.0,27.0,-100.00,SSW,210,1.0,2.0,96,0.00,,,0.00,,2013-03-02 06:31:00,
2013-03-02 01:41:00,28.0,27.0,-100.00,SSW,210,1.0,2.0,96,0.00,,,0.00,,2013-03-02 06:41:00,
2013-03-02 01:51:00,28.0,27.0,-100.00,SSW,210,1.0,2.0,96,0.00,,,0.00,,2013-03-02 06:51:00,
2013-03-02 02:11:00,28.0,27.0,-100.00,NNW,329,1.0,1.0,96,0.00,,,0.00,,2013-03-02 07:11:00,
2013-03-02 02:21:00,28.0,27.0,-100.00,NNW,329,1.0,1.0,96,0.00,,,0.00,,2013-03-02 07:21:00,
2013-03-02 02:32:00,28.0,27.0,-100.00,NNW,329,1.0,1.0,96,0.00,,,0.00,,2013-03-02 07:32:00,
2013-03-02 02:42:00,28.0,27.0,-100.00,NNW,329,1.0,1.0,96,0.00,,,0.00,,2013-03-02 07:42:00,
2013-03-02 02:51:00,28.0,27.0,-100.00,NNW,329,1.0,1.0,96,0.00,,,0.00,,2013-03-02 07:51:00,
2013-03-02 03:11:00,28.0,27.0,-100.00,SW,234,0.0,1.0,96,0.00,,,0.00,,2013-03-02 08:11:00,
2013-03-02 03:21:00,28.0,27.0,-100.00,SW,234,0.0,1.0,96,0.00,,,0.00,,2013-03-02 08:21:00,
2013-03-02 03:32:00,28.0,27.0,-100.00,SW,234,0.0,1.0,96,0.00,,,0.00,,2013-03-02 08:32:00,
2013-03-02 03:42:00,28.0,27.0,-100.00,SW,234,0.0,1.0,96,0.00,,,0.00,,2013-03-02 08:42:00,
2013-03-02 03:52:00,28.0,27.0,-100.00,SW,234,0.0,1.0,96,0.00,,,0.00,,2013-03-02 08:52:00,
2013-03-02 04:11:00,28.0,27.0,-100.00,West,275,2.0,4.0,96,0.00,,,0.00,,2013-03-02 09:11:00,
2013-03-02 04:21:00,28.0,27.0,-100.00,West,275,2.0,4.0,96,0.00,,,0.00,,2013-03-02 09:21:00,
2013-03-02 04:31:00,28.0,27.0,-100.00,West,275,2.0,4.0,96,0.00,,,0.00,,2013-03-02 09:31:00,
2013-03-02 04:42:00,28.0,27.0,-100.00,West,275,2.0,4.0,96,0.00,,,0.00,,2013-03-02 09:42:00,
2013-03-02 04:51:00,28.0,27.0,-100.00,West,275,2.0,4.0,96,0.00,,,0.00,,2013-03-02 09:51:00,
2013-03-02 05:15:00,28.0,27.0,-100.00,West,281,2.0,2.0,97,0.00,,,0.00,,2013-03-02 10:15:00,
2013-03-02 05:21:00,28.0,27.0,-100.00,West,281,2.0,2.0,97,0.00,,,0.00,,2013-03-02 10:21:00,
2013-03-02 05:31:00,28.0,27.0,-100.00,West,281,2.0,2.0,97,0.00,,,0.00,,2013-03-02 10:31:00,
2013-03-02 05:42:00,28.0,27.0,-100.00,West,281,2.0,2.0,97,0.00,,,0.00,,2013-03-02 10:42:00,
2013-03-02 05:51:00,28.0,27.0,-100.00,West,281,2.0,2.0,97,0.00,,,0.00,,2013-03-02 10:51:00,
2013-03-02 06:21:00,28.0,27.0,-100.00,WSW,251,2.0,4.0,97,0.00,,,0.00,,2013-03-02 11:21:00,
2013-03-02 06:31:00,28.0,27.0,-100.00,WSW,251,2.0,4.0,97,0.00,,,0.00,,2013-03-02 11:31:00,
2013-03-02 06:41:00,28.0,27.0,-100.00,WSW,251,2.0,4.0,97,0.00,,,0.00,,2013-03-02 11:41:00,
2013-03-02 06:52:00,28.0,27.0,-100.00,WSW,251,2.0,4.0,97,0.00,,,0.00,,2013-03-02 11:52:00,
2013-03-02 07:11:00,28.0,27.0,-100.00,West,275,2.0,4.0,96,0.00,,,0.00,,2013-03-02 12:11:00,
2013-03-02 07:21:00,28.0,27.0,-100.00,West,275,2.0,4.0,96,0.00,,,0.00,,2013-03-02 12:21:00,
2013-03-02 07:32:00,28.0,27.0,-100.00,West,275,2.0,4.0,96,0.00,,,0.00,,2013-03-02 12:32:00,
2013-03-02 07:43:00,28.0,27.0,-100.00,West,275,2.0,4.0,96,0.00,,,0.00,,2013-03-02 12:43:00,
2013-03-02 07:52:00,28.0,27.0,-100.00,West,275,2.0,4.0,96,0.00,,,0.00,,2013-03-02 12:52:00,
2013-03-02 08:11:00,28.0,27.0,-100.00,West,274,1.0,4.0,96,0.00,,,0.00,,2013-03-02 13:11:00,
2013-03-02 08:21:00,28.0,27.0,-100.00,West,274,1.0,4.0,96,0.00,,,0.00,,2013-03-02 13:21:00,
2013-03-02 08:31:00,28.0,27.0,-100.00,West,274,1.0,4.0,96,0.00,,,0.00,,2013-03-02 13:31:00,
2013-03-02 08:41:00,28.0,27.0,-100.00,West,274,1.0,4.0,96,0.00,,,0.00,,2013-03-02 13:41:00,
2013-03-02 08:52:00,28.0,27.0,-100.00,West,274,1.0,4.0,96,0.00,,,0.00,,2013-03-02 13:52:00,
2013-03-02 09:21:00,28.0,27.0,-100.00,NW,309,0.0,1.0,96,0.00,,,-99.99,,2013-03-02 14:21:00,
2013-03-02 09:32:00,28.0,27.0,-100.00,NW,309,0.0,1.0,96,0.00,,,-99.99,,2013-03-02 14:32:00,
2013-03-02 09:42:00,28.0,27.0,-100.00,NW,309,0.0,1.0,96,0.00,,,-99.99,,2013-03-02 14:42:00,
2013-03-02 09:52:00,28.0,27.0,-100.00,NW,309,0.0,1.0,96,0.00,,,-99.99,,2013-03-02 14:52:00,
2013-03-02 10:11:00,28.0,27.0,-100.00,WNW,291,0.0,0.0,96,0.00,,,0.00,,2013-03-02 15:11:00,
2013-03-02 10:21:00,28.0,27.0,-100.00,WNW,291,0.0,0.0,96,0.00,,,0.00,,2013-03-02 15:21:00,
2013-03-02 10:31:00,28.0,27.0,-100.00,WNW,291,0.0,0.0,96,0.00,,,0.00,,2013-03-02 15:31:00,
2013-03-02 10:41:00,28.0,27.0,-100.00,WNW,291,0.0,0.0,96,0.00,,,0.00,,2013-03-02 15:41:00,
2013-03-02 10:51:00,28.0,27.0,-100.00,WNW,291,0.0,0.0,96,0.00,,,0.00,,2013-03-02 15:51:00,
2013-03-02 11:11:00,29.0,28.0,-100.00,West,267,2.0,4.0,96,0.00,,,0.00,,2013-03-02 16:11:00,
2013-03-02 11:21:00,29.0,28.0,-100.00,West,267,2.0,4.0,96,0.00,,,0.00,,2013-03-02 16:21:00,
2013-03-02 11:31:00,29.0,28.0,-100.00,West,267,2.0,4.0,96,0.00,,,0.00,,2013-03-02 16:31:00,
2013-03-02 11:41:00,29.0,28.0,-100.00,West,267,2.0,4.0,96,0.00,,,0.00,,2013-03-02 16:41:00,
2013-03-02 11:51:00,29.0,28.0,-100.00,West,267,2.0,4.0,96,0.00,,,0.00,,2013-03-02 16:51:00,
2013-03-02 12:11:00,31.0,29.0,-100.00,West,262,1.0,2.0,93,0.00,,,0.00,,2013-03-02 17:11:00,
2013-03-02 12:21:00,31.0,29.0,-100.00,West,262,1.0,2.0,93,0.00,,,0.00,,2013-03-02 17:21:00,
2013-03-02 12:32:00,31.0,29.0,-100.00,West,262,1.0,2.0,93,0.00,,,0.00,,2013-03-02 17:32:00,
2013-03-02 12:41:00,31.0,29.0,-100.00,West,262,1.0,2.0,93,0.00,,,0.00,,2013-03-02 17:41:00,
2013-03-02 12:52:00,31.0,29.0,-100.00,West,262,1.0,2.0,93,0.00,,,0.00,,2013-03-02 17:52:00,
2013-03-02 13:11:00,33.0,30.0,-100.00,West,275,2.0,5.0,88,0.00,,,0.00,,2013-03-02 18:11:00,
2013-03-02 13:22:00,33.0,30.0,-100.00,West,275,2.0,5.0,88,0.00,,,0.00,,2013-03-02 18:22:00,
2013-03-02 13:31:00,33.0,30.0,-100.00,West,275,2.0,5.0,88,0.00,,,0.00,,2013-03-02 18:31:00,
2013-03-02 13:41:00,33.0,30.0,-100.00,West,275,2.0,5.0,88,0.00,,,0.00,,2013-03-02 18:41:00,
2013-03-02 13:51:00,33.0,30.0,-100.00,West,275,2.0,5.0,88,0.00,,,0.00,,2013-03-02 18:51:00,
2013-03-02 14:11:00,35.0,31.0,-100.00,West,259,1.0,4.0,85,0.00,,,0.00,,2013-03-02 19:11:00,
2013-03-02 14:21:00,35.0,31.0,-100.00,West,259,1.0,4.0,85,0.00,,,0.00,,2013-03-02 19:21:00,
2013-03-02 14:31:00,35.0,31.0,-100.00,West,259,1.0,4.0,85,0.00,,,0.00,,2013-03-02 19:31:00,
2013-03-02 14:42:00,35.0,31.0,-100.00,West,259,1.0,4.0,85,0.00,,,0.00,,2013-03-02 19:42:00,
2013-03-02 14:51:00,35.0,31.0,-100.00,West,259,1.0,4.0,85,0.00,,,0.00,,2013-03-02 19:51:00,
2013-03-02 15:21:00,36.0,31.0,-100.00,West,274,2.0,4.0,82,0.00,,,0.00,,2013-03-02 20:21:00,
2013-03-02 15:32:00,36.0,31.0,-100.00,West,274,2.0,4.0,82,0.00,,,0.00,,2013-03-02 20:32:00,
2013-03-02 15:41:00,36.0,31.0,-100.00,West,274,2.0,4.0,82,0.00,,,0.00,,2013-03-02 20:41:00,
2013-03-02 15:52:00,36.0,31.0,-100.00,West,274,2.0,4.0,82,0.00,,,0.00,,2013-03-02 20:52:00,
2013-03-02 16:11:00,39.0,32.0,-100.00,SSW,210,2.0,5.0,75,0.00,,,0.00,,2013-03-02 21:11:00,
2013-03-02 16:22:00,39.0,32.0,-100.00,SSW,210,2.0,5.0,75,0.00,,,0.00,,2013-03-02 21:22:00,
2013-03-02 16:31:00,39.0,32.0,-100.00,SSW,210,2.0,5.0,75,0.00,,,0.00,,2013-03-02 21:31:00,
2013-03-02 16:41:00,39.0,32.0,-100.00,SSW,210,2.0,5.0,75,0.00,,,0.00,,2013-03-02 21:41:00,
2013-03-02 16:52:00,39.0,32.0,-100.00,SSW,210,2.0,5.0,75,0.00,,,0.00,,2013-03-02 21:52:00,
2013-03-02 17:11:00,41.0,33.0,-100.00,SW,218,4.0,6.0,73,0.00,,,0.00,,2013-03-02 22:11:00,
2013-03-02 17:21:00,41.0,33.0,-100.00,SW,218,4.0,6.0,73,0.00,,,0.00,,2013-03-02 22:21:00,
2013-03-02 17:32:00,41.0,33.0,-100.00,SW,218,4.0,6.0,73,0.00,,,0.00,,2013-03-02 22:32:00,
2013-03-02 17:42:00,41.0,33.0,-100.00,SW,218,4.0,6.0,73,0.00,,,0.00,,2013-03-02 22:42:00,
2013-03-02 17:51:00,41.0,33.0,-100.00,SW,218,4.0,6.0,73,0.00,,,0.00,,2013-03-02 22:51:00,
2013-03-02 18:11:00,39.0,32.0,-100.00,West,275,5.0,7.0,78,0.00,,,0.00,,2013-03-02 23:11:00,
2013-03-02 18:21:00,39.0,32.0,-100.00,West,275,5.0,7.0,78,0.00,,,0.00,,2013-03-02 23:21:00,
2013-03-02 18:32:00,39.0,32.0,-100.00,West,275,5.0,7.0,78,0.00,,,0.00,,2013-03-02 23:32:00,
2013-03-02 18:42:00,39.0,32.0,-100.00,West,275,5.0,7.0,78,0.00,,,0.00,,2013-03-02 23:42:00,
2013-03-02 18:52:00,39.0,32.0,-100.00,West,275,5.0,7.0,78,0.00,,,0.00,,2013-03-02 23:52:00,
2013-03-02 19:11:00,40.0,33.0,-100.00,NW,309,2.0,2.0,75,0.00,,,0.00,,2013-03-03 00:11:00,
2013-03-02 19:22:00,40.0,33.0,-100.00,NW,309,2.0,2.0,75,0.00,,,0.00,,2013-03-03 00:22:00,
2013-03-02 19:32:00,40.0,33.0,-100.00,NW,309,2.0,2.0,75,0.00,,,0.00,,2013-03-03 00:32:00,
2013-03-02 19:42:00,40.0,33.0,-100.00,NW,309,2.0,2.0,75,0.00,,,0.00,,2013-03-03 00:42:00,
2013-03-02 19:52:00,40.0,33.0,-100.00,NW,309,2.0,2.0,75,0.00,,,0.00,,2013-03-03 00:52:00,
2013-03-02 20:11:00,38.0,33.0,-100.00,WNW,288,1.0,2.0,82,0.00,,,0.00,,2013-03-03 01:11:00,
2013-03-02 20:21:00,38.0,33.0,-100.00,WNW,288,1.0,2.0,82,0.00,,,0.00,,2013-03-03 01:21:00,
2013-03-02 20:31:00,38.0,33.0,-100.00,WNW,288,1.0,2.0,82,0.00,,,0.00,,2013-03-03 01:31:00,
2013-03-02 20:41:00,38.0,33.0,-100.00,WNW,288,1.0,2.0,82,0.00,,,0.00,,2013-03-03 01:41:00,
2013-03-02 20:51:00,38.0,33.0,-100.00,WNW,288,1.0,2.0,82,0.00,,,0.00,,2013-03-03 01:51:00,
2013-03-02 21:21:00,34.0,32.0,-100.00,West,269,1.0,1.0,92,0.00,,,0.00,,2013-03-03 02:21:00,
2013-03-02 21:31:00,34.0,32.0,-100.00,West,269,1.0,1.0,92,0.00,,,0.00,,2013-03-03 02:31:00,
2013-03-02 21:41:00,34.0,32.0,-100.00,West,269,1.0,1.0,92,0.00,,,0.00,,2013-03-03 02:41:00,
2013-03-02 21:52:00,34.0,32.0,-100.00,West,269,1.0,1.0,92,0.00,,,0.00,,2013-03-03 02:52:00,
2013-03-02 22:11:00,32.0,30.0,-100.00,WNW,296,1.0,1.0,95,0.00,,,-99.99,,2013-03-03 03:11:00,
2013-03-02 22:21:00,32.0,30.0,-100.00,WNW,296,1.0,1.0,95,0.00,,,-99.99,,2013-03-03 03:21:00,
2013-03-02 22:31:00,32.0,30.0,-100.00,WNW,296,1.0,1.0,95,0.00,,,-99.99,,2013-03-03 03:31:00,
2013-03-02 22:41:00,32.0,30.0,-100.00,WNW,296,1.0,1.0,95,0.00,,,-99.99,,2013-03-03 03:41:00,
2013-03-02 22:51:00,32.0,30.0,-100.00,WNW,296,1.0,1.0,95,0.00,,,-99.99,,2013-03-03 03:51:00,
2013-03-02 23:11:00,30.0,29.0,-100.00,ENE,71,1.0,1.0,96,0.00,,,0.00,,2013-03-03 04:11:00,
2013-03-02 23:21:00,30.0,29.0,-100.00,ENE,71,1.0,1.0,96,0.00,,,0.00,,2013-03-03 04:21:00,
2013-03-02 23:31:00,30.0,29.0,-100.00,ENE,71,1.0,1.0,96,0.00,,,0.00,,2013-03-03 04:31:00,
2013-03-02 23:41:00,30.0,29.0,-100.00,ENE,71,1.0,1.0,96,0.00,,,0.00,,2013-03-03 04:41:00,
2013-03-02 23:51:00,30.0,29.0,-100.00,ENE,71,1.0,1.0,96,0.00,,,0.00,,2013-03-03 04:51:00,